Location: Il Ritiro
(43.4167°N, 13.1333°E)
Time: 01:28:14
(UTC+00:00)

Cosmos 962 Rocket - Pass Details

Date: 05 July 2020
Orbit: 950 x 1000 km, 82.9° (Epoch: 11 August)

Event Time Altitude Azimuth Distance (km) Brightness Sun altitude
Exits shadow 22:12:15 44° 178° (S) 1,345 4.7 -22.5°
Maximum altitude 22:14:28 83° 96° (E) 1,007 4.4 -22.6°
Drops below altitude 10° 22:20:51 10° 9° (N) 2,777 7.8 -22.9°
Sets 22:23:24 0° 9° (N) 3,732 8.7 -23.0°
